FW9486 Weather Reports


Display with metric or nautical units.
time (UTC)temp
F
wind
direction
speed
MPH
gust
MPH
rain 1hr
in
rain 24hr
in
rain mn
in
humidity
%
barometer
mb
20260506211535 66 340 6.0 13.0 0.00 0.00 0.00 36 1014.0
20260506210043 66 312 3.0 8.0 0.00 0.00 0.00 40 1014.3
20260506204538 67 276 4.0 15.0 0.00 0.00 0.00 35 1014.3
20260506203036 67 290 3.0 10.0 0.00 0.00 0.00 39 1014.5
20260506201536 65 206 4.0 11.0 0.00 0.00 0.00 36 1014.5
20260506200036 65 122 3.0 9.0 0.00 0.00 0.00 37 1014.6
20260506194548 65 324 3.0 8.0 0.00 0.00 0.00 38 1014.9
20260506193035 64 243 2.0 8.0 0.00 0.00 0.00 37 1015.3
20260506191536 63 304 4.0 9.0 0.00 0.00 0.00 40 1015.5
20260506190035 63 290 3.0 8.0 0.00 0.00 0.00 37 1015.4
20260506184534 63 263 4.0 8.0 0.00 0.00 0.00 35 1015.5
20260506183036 63 184 2.0 7.0 0.00 0.00 0.00 40 1015.6
20260506181537 62 277 3.0 8.0 0.00 0.00 0.00 37 1015.7
20260506180042 62 190 3.0 9.0 0.00 0.00 0.00 36 1015.7
20260506174536 61 0 2.0 7.0 0.00 0.00 0.00 40 1015.9
20260506173035 60 312 2.0 6.0 0.00 0.00 0.00 40 1015.9
20260506171551 58 229 2.0 7.0 0.00 0.00 0.00 38 1016.0
20260506170040 58 255 3.0 7.0 0.00 0.00 0.00 38 1016.1
20260506164536 57 217 3.0 7.0 0.00 0.00 0.00 40 1016.1
20260506163042 57 304 2.0 7.0 0.00 0.00 0.00 41 1016.1
20260506161535 55 193 4.0 9.0 0.00 0.00 0.00 42 1016.2
20260506160043 56 280 3.0 7.0 0.00 0.00 0.00 44 1016.2
20260506154544 54 0 0.0 5.0 0.00 0.00 0.00 47 1016.2
20260506153035 55 146 1.0 4.0 0.00 0.00 0.00 51 1016.2
20260506151538 54 321 0.0 3.0 0.00 0.00 0.00 52 1016.1
20260506150036 51 311 1.0 7.0 0.00 0.00 0.00 54 1016.1
20260506144537 50 276 1.0 4.0 0.00 0.00 0.00 61 1016.1
20260506143036 46 0 0.0 3.0 0.00 0.00 0.00 74 1016.0
20260506141537 47 0 0.0 1.0 0.00 0.00 0.00 78 1015.8
20260506140043 42 36 0.0 2.0 0.00 0.00 0.00 86 1015.7
20260506134538 38 0 0.0 2.0 0.00 0.00 0.00 89 1015.5
20260506133046 40 121 1.0 3.0 0.00 0.00 0.00 86 1015.2
20260506131537 39 0 0.0 1.0 0.00 0.00 0.00 89 1014.7
20260506130037 39 0 0.0 1.0 0.00 0.00 0.00 89 1014.5
20260506124535 37 0 1.0 1.0 0.00 0.00 0.00 90 1014.5
20260506123036 38 69 0.0 1.0 0.00 0.00 0.00 88 1014.3
20260506121539 39 0 0.0 0.0 0.00 0.00 0.00 86 1014.2
20260506120040 39 0 0.0 0.0 0.00 0.00 0.00 86 1014.0
20260506114536 38 0 0.0 1.0 0.00 0.00 0.00 88 1013.7
20260506113045 38 0 0.0 0.0 0.00 0.00 0.00 85 1013.7
20260506111536 39 0 0.0 0.0 0.00 0.00 0.00 84 1013.5
20260506110041 40 0 0.0 1.0 0.00 0.00 0.00 84 1013.3
20260506104545 39 0 0.0 0.0 0.00 0.00 0.00 86 1013.1
20260506103038 39 0 0.0 0.0 0.00 0.00 0.00 84 1012.9
20260506101545 40 0 0.0 0.0 0.00 0.00 0.00 81 1012.8
20260506100035 41 0 0.0 0.0 0.00 0.00 0.00 81 1012.8
20260506094535 41 0 0.0 0.0 0.00 0.00 0.00 80 1012.6
20260506093035 41 0 0.0 0.0 0.00 0.00 0.00 81 1012.5
20260506091536 41 0 0.0 0.0 0.00 0.00 0.00 79 1012.5
20260506090036 42 0 0.0 1.0 0.00 0.00 0.00 78 1012.4
20260506084541 42 0 0.0 1.0 0.00 0.00 0.00 78 1012.4
20260506083034 43 0 0.0 0.0 0.00 0.00 0.00 75 1012.3
20260506081537 45 0 0.0 0.0 0.00 0.00 0.00 69 1012.2
20260506073037 45 0 0.0 1.0 0.00 0.00 0.00 71 1011.8
20260506071534 45 0 0.0 1.0 0.00 0.00 0.00 72 1011.8
20260506061538 47 0 0.0 1.0 0.00 0.00 0.00 66 1011.0
20260506044536 55 0 0.0 1.0 0.00 0.00 0.00 49 1010.0
20260506043036 56 0 0.0 1.0 0.00 0.00 0.00 48 1009.8
20260506041540 56 0 0.0 1.0 0.00 0.00 0.00 47 1009.6
20260506040041 57 0 0.0 1.0 0.00 0.00 0.00 47 1009.5
20260506034535 58 0 0.0 1.0 0.00 0.00 0.00 45 1009.2
20260506033035 58 0 0.0 2.0 0.00 0.00 0.00 44 1008.9
20260506031536 59 0 0.0 2.0 0.00 0.00 0.00 42 1008.8
20260506030037 60 165 0.0 4.0 0.00 0.00 0.00 40 1008.6
20260506024537 61 60 1.0 5.0 0.00 0.00 0.00 39 1008.5
20260506023054 61 0 1.0 6.0 0.00 0.00 0.00 37 1008.3
20260506021540 62 89 1.0 7.0 0.00 0.00 0.00 36 1008.1
20260506020035 63 11 2.0 8.0 0.00 0.00 0.00 35 1008.0
20260506014538 64 321 2.0 10.0 0.00 0.00 0.00 34 1007.9
20260506013036 64 17 2.0 9.0 0.00 0.00 0.00 33 1007.9
20260506011535 65 97 3.0 10.0 0.00 0.00 0.00 33 1007.8
20260506010048 67 0 4.0 13.0 0.00 0.00 0.00 34 1007.7
20260506004537 68 75 2.0 6.0 0.00 0.00 0.00 34 1007.6
20260506003035 68 292 2.0 14.0 0.00 0.00 0.00 34 1007.6
20260506001542 68 79 2.0 12.0 0.00 0.00 0.00 33 1007.5
20260506000041 68 13 3.0 12.0 0.00 0.00 0.00 35 1007.4
20260505234556 69 57 4.0 13.0 0.00 0.00 0.00 32 1007.5
20260505233040 70 72 2.0 15.0 0.00 0.00 0.00 33 1007.5
20260505231537 70 0 2.0 11.0 0.00 0.00 0.00 34 1007.3
20260505230034 70 86 3.0 10.0 0.00 0.00 0.00 29 1007.5
20260505224537 71 86 2.0 6.0 0.00 0.00 0.00 29 1007.5
20260505223040 71 111 1.0 10.0 0.00 0.00 0.00 29 1007.7
20260505221536 71 313 2.0 13.0 0.00 0.00 0.00 30 1007.7
20260505220034 71 60 4.0 11.0 0.00 0.00 0.00 28 1007.7
20260505214559 70 122 6.0 15.0 0.00 0.00 0.00 28 1007.8
20260505213051 71 49 2.0 9.0 0.00 0.00 0.00 28 1007.9